Montrose, CO

3:03 AM MST on February 06, 2016 (GMT -0700)
Montrose Regional

Weather History for KMTJ - November, 2010

Change the Weather History Date:

Thursday, November 11, 2010

  Actual Average Record
Temperature  
Mean Temperature 34 °F 39 °F  
Max Temperature 39 °F 52 °F 66 °F (2007)
Min Temperature 25 °F 26 °F 16 °F (1998)
Degree Days  
Heating Degree Days 32 26  
Month to date heating degree days 258  
Since 1 July heating degree days 849  
Cooling Degree Days 0 0  
Month to date cooling degree days 0  
Year to date cooling degree days 643  
Moisture  
Dew Point 29 °F    
Average Humidity 91    
Maximum Humidity 100    
Minimum Humidity 60    
Precipitation  
Precipitation 0.04 in 0.02 in 0.36 in (1997)
Month to date precipitation 0.33  
Year to date precipitation 10.17  
Sea Level Pressure  
Sea Level Pressure 30.14 in    
Wind  
Wind Speed 3 mph (NNW)    
Max Wind Speed 12 mph    
Max Gust Speed -    
Visibility 5 miles    
Events Snow    
T = Trace of Precipitation, MM = Missing Value Source: NWS Daily Summary

Daily Weather History Graph

Daily Weather History Graph

Search for Another Location

Airport or City:

Trip Planner

Search our weather history database for the weather conditions in past years. The results will help you decide how hot, cold, wet, or windy it might be!

Date:

Astronomy

Nov. 11, 2010 Rise Set
Actual Time 6:49 AM MST 5:01 PM MST
Civil Twilight 6:20 AM MST 5:29 PM MST
Nautical Twilight 5:49 AM MST 6:01 PM MST
Astronomical Twilight 5:17 AM MST 6:32 PM MST
Moon 11:49 AM MST (11/11) 10:10 PM MST (11/11)
Length of Visible Light 11h 08m
Length of Day
10h 12m
Waxing Crescent, 32% of the Moon is Illuminated
Nov 11
Waxing Crescent
Nov 13
First Quarter
Nov 21
Full
Nov 28
Last Quarter
Dec 5
New

Hourly Weather History & Observations

Time (MST) Temp. Windchill Dew Point Humidity Pressure Visibility Wind Dir Wind Speed Gust Speed Precip Events Conditions
12:04 AM 32.0 °F - 30.2 °F 93% 30.01 in 1.8 mi Calm Calm - 0.00 in Snow Light Snow
12:09 AM 32.0 °F - 30.2 °F 93% 30.01 in 1.8 mi Calm Calm - 0.00 in Snow Light Snow
12:18 AM 32.0 °F - 30.2 °F 93% 30.01 in 2.5 mi Calm Calm - 0.00 in Snow Light Snow
12:32 AM 32.0 °F - 30.2 °F 93% 30.01 in 2.5 mi Calm Calm - 0.00 in Snow Light Snow
1:03 AM 30.2 °F - 30.2 °F 100% 30.01 in 2.5 mi Calm Calm - 0.00 in Snow Light Snow
1:16 AM 30.2 °F - 30.2 °F 100% 30.01 in 3.0 mi Calm Calm - 0.00 in Snow Light Snow
1:31 AM 30.2 °F - 30.2 °F 100% 30.02 in 4.0 mi Calm Calm - 0.00 in Snow Light Snow
1:38 AM 30.2 °F - 30.2 °F 100% 30.02 in 2.5 mi Calm Calm - 0.00 in Snow Light Snow
1:45 AM 30.2 °F 26.7 °F 30.2 °F 100% 30.02 in 1.5 mi North 3.5 mph - 0.00 in Snow Light Snow
1:53 AM 30.9 °F - 30.0 °F 96% 29.98 in 1.5 mi Calm Calm - 0.00 in Snow Light Snow
2:02 AM 30.2 °F - 30.2 °F 100% 30.02 in 1.8 mi Calm Calm - 0.01 in Snow Light Snow
2:09 AM 30.2 °F - 30.2 °F 100% 30.02 in 2.0 mi Calm Calm - 0.01 in Snow Light Snow
2:20 AM 30.2 °F - 30.2 °F 100% 30.03 in 4.0 mi Calm Calm - 0.01 in Snow Light Snow
2:53 AM 30.9 °F 27.5 °F 30.0 °F 96% 29.99 in 5.0 mi NNW 3.5 mph - 0.01 in Snow Light Snow
3:07 AM 30.2 °F 25.4 °F 30.2 °F 100% 30.04 in 8.0 mi NNW 4.6 mph - 0.00 in   Overcast
3:53 AM 30.9 °F 26.2 °F 30.0 °F 96% 30.01 in 3.0 mi NNW 4.6 mph - 0.00 in Snow Light Snow
4:37 AM 30.2 °F 26.7 °F 30.2 °F 100% 30.06 in 2.5 mi NW 3.5 mph - 0.00 in Snow Light Snow
4:53 AM 30.9 °F 25.2 °F 30.0 °F 96% 30.04 in 1.8 mi WNW 5.8 mph - 0.00 in Snow Light Snow
5:02 AM 30.2 °F 25.4 °F 30.2 °F 100% 30.07 in 1.5 mi WNW 4.6 mph - 0.00 in Snow Light Snow
5:11 AM 30.2 °F 24.3 °F 30.2 °F 100% 30.07 in 2.0 mi WNW 5.8 mph - 0.00 in Snow Light Snow
5:28 AM 30.2 °F 24.3 °F 30.2 °F 100% 30.07 in 2.5 mi NW 5.8 mph - 0.01 in Snow Light Snow
5:53 AM 30.9 °F 25.2 °F 30.0 °F 96% 30.06 in 1.8 mi NW 5.8 mph - 0.01 in Snow Light Snow
6:06 AM 30.2 °F 24.3 °F 30.2 °F 100% 30.09 in 1.8 mi NNW 5.8 mph - 0.01 in Snow Light Snow
6:14 AM 30.2 °F 25.4 °F 30.2 °F 100% 30.09 in 1.5 mi NNW 4.6 mph - 0.01 in Snow Light Snow
6:25 AM 30.2 °F 25.4 °F 30.2 °F 100% 30.10 in 1.5 mi NNW 4.6 mph - 0.01 in Snow Light Snow
6:35 AM 30.2 °F 26.7 °F 30.2 °F 100% 30.10 in 1.5 mi NNW 3.5 mph - 0.02 in Snow Light Snow
6:46 AM 30.2 °F 25.4 °F 30.2 °F 100% 30.11 in 1.8 mi NW 4.6 mph - 0.02 in Snow Light Snow
6:53 AM 30.9 °F 26.2 °F 30.0 °F 96% 30.10 in 2.0 mi NNW 4.6 mph - 0.02 in Snow Light Snow
7:14 AM 30.2 °F 25.4 °F 30.2 °F 100% 30.12 in 2.5 mi NNW 4.6 mph - 0.00 in Snow Light Snow
7:22 AM 30.2 °F 25.4 °F 30.2 °F 100% 30.13 in 3.0 mi NNW 4.6 mph - 0.00 in Snow Light Snow
7:53 AM 30.9 °F - 30.0 °F 96% 30.14 in 2.5 mi Calm Calm - 0.00 in Snow Light Snow
8:05 AM 32.0 °F - 30.2 °F 93% 30.15 in 2.5 mi Calm Calm - 0.00 in Snow Light Snow
8:16 AM 30.2 °F 26.7 °F 30.2 °F 100% 30.15 in 2.5 mi NNW 3.5 mph - 0.00 in Snow Light Snow
8:28 AM 32.0 °F 26.4 °F 30.2 °F 93% 30.16 in 5.0 mi NNW 5.8 mph - 0.00 in Snow Light Snow
8:41 AM 32.0 °F 23.0 °F 28.4 °F 87% 30.17 in 10.0 mi NW 11.5 mph - 0.00 in   Overcast
8:53 AM 32.0 °F 23.0 °F 30.0 °F 92% 30.17 in 10.0 mi NW 11.5 mph - 0.00 in   Mostly Cloudy
9:12 AM 32.0 °F 23.6 °F 28.4 °F 87% 30.18 in 10.0 mi NNW 10.4 mph - N/A   Partly Cloudy
9:53 AM 32.0 °F 24.2 °F 28.9 °F 88% 30.21 in 10.0 mi NNW 9.2 mph - N/A   Overcast
10:53 AM 35.1 °F 27.9 °F 28.9 °F 78% 30.21 in 10.0 mi NW 9.2 mph - N/A   Mostly Cloudy
11:53 AM 36.0 °F 31.1 °F 28.9 °F 76% 30.21 in 10.0 mi NNW 5.8 mph - N/A   Overcast
12:53 PM 37.0 °F 31.0 °F 26.1 °F 65% 30.22 in 10.0 mi NW 8.1 mph - N/A   Overcast
1:53 PM 39.0 °F 32.3 °F 26.1 °F 60% 30.22 in 10.0 mi NNW 10.4 mph - N/A   Overcast
2:53 PM 37.0 °F 31.0 °F 28.9 °F 73% 30.24 in 10.0 mi SE 8.1 mph - N/A   Overcast
3:53 PM 37.0 °F 31.6 °F 28.9 °F 73% 30.26 in 10.0 mi SE 6.9 mph - N/A   Overcast
4:53 PM 37.0 °F 34.5 °F 28.0 °F 70% 30.29 in 10.0 mi ESE 3.5 mph - N/A   Overcast
5:53 PM 36.0 °F 33.3 °F 28.0 °F 73% 30.31 in 10.0 mi SE 3.5 mph - N/A   Overcast
6:53 PM 34.0 °F 31.0 °F 28.0 °F 79% 30.34 in 10.0 mi East 3.5 mph - N/A   Overcast
7:53 PM 33.1 °F - 28.0 °F 82% 30.37 in 10.0 mi Calm Calm - N/A   Overcast
8:53 PM 33.1 °F - 24.1 °F 70% 30.39 in 10.0 mi Calm Calm - N/A   Mostly Cloudy
9:53 PM 28.9 °F - 24.1 °F 82% 30.42 in 10.0 mi Calm Calm - N/A   Clear
10:53 PM 28.0 °F 20.8 °F 26.1 °F 92% 30.41 in 10.0 mi SSE 6.9 mph - N/A   Mostly Cloudy
11:53 PM 25.0 °F 19.3 °F 21.9 °F 88% 30.42 in 10.0 mi SSE 4.6 mph - N/A   Clear